sat.trackr.live / text

‹ back to catalog

KUIPER-00057

NORAD 64517 · 2025-134T

PAYLOAD ACTIVE UNKNOWN

§ Identity

Operator
Country
US
Launch date
2025-06-23
Launch site
AFETR
Launch vehicle
Mass (kg)
RCS (m²)

External: N2YO · Heavens-Above · Gunter

§ Orbital elements

Epoch: 2026-09-21T21:48:09.486432Z

Period
97.30 min
Inclination
51.9007°
Eccentricity
0.0000659
Mean motion
14.79938340 rev/d
Perigee alt
629.1 km
Apogee alt
630.0 km
Semi-major
7,007.7 km
B*
2.7814e-4
RAAN
82.8884°
Arg perigee
118.6839°
Mean anomaly
241.4190°
Rev number
6,916

§ Raw data

KUIPER-000571 64517U 25134T   26264.90844313  .00001900  00000+0  27814-3 0  99942 64517  51.9007  82.8884 0000659 118.6839 241.4190 14.79938340 69162

JSON: /api/v1/satellites/64517 · /tle

For live sub-satellite position, see the globe view (requires WebGL).

§ Visibility from observer

Set your observer location to see the next 7 days of passes ≥ 10°. The values pass through the URL so the page stays shareable.

No JS? Fill the form by hand. The geolocation button needs JavaScript.